Location: Liberec
(50.7830°N, 15.0500°E)
Time: 18:50:55
(UTC+02:00)

ISS - Pass Details

Date: 19 May 2021
Orbit: 417 x 422 km, 51.6° (Epoch: 16 June)

Event Time Altitude Azimuth Distance (km) Brightness Sun altitude
Rises 02:06:56 0° 286° (WNW) 2,372 0.1 -17.7°
Reaches altitude 10° 02:09:09 10° 276° (W) 1,506 -1.1 -17.6°
Enters shadow 02:09:22 11° 275° (W) 1,422 -1.2 -17.6°
